Time,TemperatureF,DewpointF,PressureIn,WindDirection,WindDirectionDegrees,WindSpeedMPH,WindSpeedGustMPH,Humidity,HourlyPrecipIn,Conditions,Clouds,dailyrainin,SoftwareType,DateUTC
2013-07-02 00:00:00,70.2,60.0,30.06,NNE,24,1.0,5.0,70,0.00,,,0.00,VWS V14.01,2013-07-01 22:00:00,
2013-07-02 00:02:00,70.1,59.9,30.06,NNE,24,2.0,5.0,70,0.00,,,0.00,VWS V14.01,2013-07-01 22:02:00,
2013-07-02 00:07:00,70.2,59.6,30.06,NNE,24,1.0,2.0,69,0.00,,,0.00,VWS V14.01,2013-07-01 22:07:00,
2013-07-02 00:10:00,69.9,58.9,30.05,NNE,24,0.0,2.0,68,0.00,,,0.00,VWS V14.01,2013-07-01 22:10:00,
2013-07-02 00:12:00,70.0,59.4,30.05,NNE,24,0.0,2.0,69,0.00,,,0.00,VWS V14.01,2013-07-01 22:12:00,
2013-07-02 00:17:00,69.8,59.2,30.05,NNE,24,0.0,0.0,69,0.00,,,0.00,VWS V14.01,2013-07-01 22:17:00,
2013-07-02 00:20:00,69.6,59.0,30.05,NNE,24,0.0,1.0,69,0.00,,,0.00,VWS V14.01,2013-07-01 22:20:00,
2013-07-02 00:22:00,69.7,59.1,30.05,NNE,24,0.0,1.0,69,0.00,,,0.00,VWS V14.01,2013-07-01 22:22:00,
2013-07-02 00:27:00,69.6,58.6,30.05,NNE,24,1.0,1.0,68,0.00,,,0.00,VWS V14.01,2013-07-01 22:27:00,
2013-07-02 00:30:00,69.8,58.4,30.05,NNE,24,3.0,3.0,67,0.00,,,0.00,VWS V14.01,2013-07-01 22:30:00,
2013-07-02 00:32:00,69.8,58.4,30.05,NNE,24,2.0,3.0,67,0.00,,,0.00,VWS V14.01,2013-07-01 22:32:00,
2013-07-02 00:37:00,69.8,58.4,30.05,NNE,24,3.0,4.0,67,0.00,,,0.00,VWS V14.01,2013-07-01 22:37:00,
2013-07-02 00:40:00,69.7,57.8,30.05,NNE,24,4.0,5.0,66,0.00,,,0.00,VWS V14.01,2013-07-01 22:40:00,
2013-07-02 00:42:00,69.6,57.8,30.05,NNE,24,5.0,5.0,66,0.00,,,0.00,VWS V14.01,2013-07-01 22:42:00,
2013-07-02 00:47:00,69.6,57.8,30.05,NNE,24,3.0,5.0,66,0.00,,,0.00,VWS V14.01,2013-07-01 22:47:00,
2013-07-02 00:50:00,69.6,57.8,30.05,NNE,24,4.0,5.0,66,0.00,,,0.00,VWS V14.01,2013-07-01 22:50:00,
2013-07-02 00:52:00,69.5,57.7,30.06,NNE,24,2.0,5.0,66,0.00,,,0.00,VWS V14.01,2013-07-01 22:52:00,
2013-07-02 00:57:00,69.6,57.8,30.05,NNE,24,1.0,4.0,66,0.00,,,0.00,VWS V14.01,2013-07-01 22:57:00,
2013-07-02 01:00:00,69.4,57.6,30.05,NNE,24,4.0,5.0,66,0.00,,,0.00,VWS V14.01,2013-07-01 23:00:00,
2013-07-02 01:03:00,69.3,57.5,30.05,NNE,24,3.0,5.0,66,0.00,,,0.00,VWS V14.01,2013-07-01 23:03:00,
2013-07-02 01:08:00,69.6,57.8,30.05,NNE,24,2.0,4.0,66,0.00,,,0.00,VWS V14.01,2013-07-01 23:08:00,
2013-07-02 01:10:00,69.5,57.7,30.05,ESE,110,1.0,4.0,66,0.00,,,0.00,VWS V14.01,2013-07-01 23:10:00,
2013-07-02 01:13:00,69.5,57.7,30.05,ESE,110,2.0,4.0,66,0.00,,,0.00,VWS V14.01,2013-07-01 23:13:00,
2013-07-02 01:18:00,69.7,57.8,30.05,ESE,110,0.0,2.0,66,0.00,,,0.00,VWS V14.01,2013-07-01 23:18:00,
2013-07-02 01:20:00,69.6,57.8,30.04,ESE,110,0.0,2.0,66,0.00,,,0.00,VWS V14.01,2013-07-01 23:20:00,
2013-07-02 01:23:00,69.7,57.8,30.04,ESE,110,1.0,2.0,66,0.00,,,0.00,VWS V14.01,2013-07-01 23:23:00,
2013-07-02 01:28:00,69.6,57.8,30.05,ESE,110,0.0,0.0,66,0.00,,,0.00,VWS V14.01,2013-07-01 23:28:00,
2013-07-02 01:30:00,69.6,58.2,30.05,ESE,110,0.0,1.0,67,0.00,,,0.00,VWS V14.01,2013-07-01 23:30:00,
2013-07-02 01:33:00,69.6,58.2,30.05,ESE,110,0.0,1.0,67,0.00,,,0.00,VWS V14.01,2013-07-01 23:33:00,
2013-07-02 01:38:00,69.7,58.3,30.05,ESE,110,0.0,0.0,67,0.00,,,0.00,VWS V14.01,2013-07-01 23:38:00,
2013-07-02 01:40:00,69.4,58.0,30.05,ESE,110,0.0,1.0,67,0.00,,,0.00,VWS V14.01,2013-07-01 23:40:00,
2013-07-02 01:43:00,69.4,58.0,30.05,ESE,110,0.0,1.0,67,0.00,,,0.00,VWS V14.01,2013-07-01 23:43:00,
2013-07-02 01:48:00,69.4,58.0,30.05,ESE,110,0.0,0.0,67,0.00,,,0.00,VWS V14.01,2013-07-01 23:48:00,
2013-07-02 01:50:00,69.3,58.3,30.05,ESE,110,0.0,1.0,68,0.00,,,0.00,VWS V14.01,2013-07-01 23:50:00,
2013-07-02 01:53:00,69.3,58.3,30.05,ESE,110,1.0,1.0,68,0.00,,,0.00,VWS V14.01,2013-07-01 23:53:00,
2013-07-02 01:58:00,69.3,58.7,30.05,ESE,110,1.0,2.0,69,0.00,,,0.00,VWS V14.01,2013-07-01 23:58:00,
2013-07-02 02:00:00,69.5,59.3,30.05,ESE,110,1.0,2.0,70,0.00,,,0.00,VWS V14.01,2013-07-02 00:00:00,
2013-07-02 02:03:00,69.4,59.2,30.05,ESE,110,1.0,2.0,70,0.00,,,0.00,VWS V14.01,2013-07-02 00:03:00,
2013-07-02 02:08:00,69.5,59.7,30.05,ESE,110,1.0,2.0,71,0.00,,,0.00,VWS V14.01,2013-07-02 00:08:00,
2013-07-02 02:10:00,69.4,60.0,30.05,ESE,110,0.0,2.0,72,0.00,,,0.00,VWS V14.01,2013-07-02 00:10:00,
2013-07-02 02:13:00,69.4,60.0,30.05,ESE,110,0.0,2.0,72,0.00,,,0.00,VWS V14.01,2013-07-02 00:13:00,
2013-07-02 02:18:00,69.4,60.4,30.05,ESE,110,3.0,3.0,73,0.00,,,0.00,VWS V14.01,2013-07-02 00:18:00,
2013-07-02 02:20:00,69.0,60.4,30.05,ESE,110,2.0,3.0,74,0.00,,,0.00,VWS V14.01,2013-07-02 00:20:00,
2013-07-02 02:23:00,69.1,60.5,30.05,ESE,110,2.0,3.0,74,0.00,,,0.00,VWS V14.01,2013-07-02 00:23:00,
2013-07-02 02:28:00,68.5,59.9,30.05,ESE,110,3.0,4.0,74,0.00,,,0.00,VWS V14.01,2013-07-02 00:28:00,
2013-07-02 02:30:00,68.2,60.0,30.04,ESE,110,2.0,4.0,75,0.00,,,0.00,VWS V14.01,2013-07-02 00:30:00,
2013-07-02 02:33:00,68.2,60.0,30.05,ESE,110,2.0,4.0,75,0.00,,,0.00,VWS V14.01,2013-07-02 00:33:00,
2013-07-02 02:38:00,68.2,59.6,30.04,ESE,110,2.0,3.0,74,0.00,,,0.00,VWS V14.01,2013-07-02 00:38:00,
2013-07-02 02:40:00,68.6,59.6,30.04,ESE,110,1.0,3.0,73,0.00,,,0.00,VWS V14.01,2013-07-02 00:40:00,
2013-07-02 02:43:00,68.5,59.5,30.04,ESE,110,1.0,3.0,73,0.00,,,0.00,VWS V14.01,2013-07-02 00:43:00,
2013-07-02 02:48:00,68.3,58.9,30.04,ESE,110,2.0,3.0,72,0.00,,,0.00,VWS V14.01,2013-07-02 00:48:00,
2013-07-02 02:50:00,68.4,59.0,30.04,ESE,110,1.0,3.0,72,0.00,,,0.00,VWS V14.01,2013-07-02 00:50:00,
2013-07-02 02:53:00,68.3,58.9,30.04,ESE,110,1.0,3.0,72,0.00,,,0.00,VWS V14.01,2013-07-02 00:53:00,
2013-07-02 02:58:00,68.7,58.5,30.04,ESE,110,1.0,2.0,70,0.00,,,0.00,VWS V14.01,2013-07-02 00:58:00,
2013-07-02 03:00:00,68.7,58.1,30.04,ESE,110,2.0,2.0,69,0.00,,,0.00,VWS V14.01,2013-07-02 01:00:00,
2013-07-02 03:03:00,68.7,58.1,30.04,ESE,110,1.0,2.0,69,0.00,,,0.00,VWS V14.01,2013-07-02 01:03:00,
2013-07-02 03:08:00,68.7,57.7,30.04,ESE,110,1.0,3.0,68,0.00,,,0.00,VWS V14.01,2013-07-02 01:08:00,
2013-07-02 03:10:00,68.7,57.7,30.03,ESE,110,1.0,3.0,68,0.00,,,0.00,VWS V14.01,2013-07-02 01:10:00,
2013-07-02 03:13:00,68.7,57.7,30.04,ESE,110,1.0,3.0,68,0.00,,,0.00,VWS V14.01,2013-07-02 01:13:00,
2013-07-02 03:18:00,68.8,57.8,30.03,ESE,110,1.0,1.0,68,0.00,,,0.00,VWS V14.01,2013-07-02 01:18:00,
2013-07-02 03:20:00,69.0,58.0,30.03,ESE,110,1.0,2.0,68,0.00,,,0.00,VWS V14.01,2013-07-02 01:20:00,
2013-07-02 03:23:00,69.0,58.0,30.03,ESE,110,2.0,2.0,68,0.00,,,0.00,VWS V14.01,2013-07-02 01:23:00,
2013-07-02 03:28:00,69.0,57.6,30.03,ESE,110,0.0,2.0,67,0.00,,,0.00,VWS V14.01,2013-07-02 01:28:00,
2013-07-02 03:30:00,68.9,57.1,30.03,ESE,110,1.0,2.0,66,0.00,,,0.00,VWS V14.01,2013-07-02 01:30:00,
2013-07-02 03:33:00,68.9,57.1,30.03,ESE,110,1.0,2.0,66,0.00,,,0.00,VWS V14.01,2013-07-02 01:33:00,
2013-07-02 03:38:00,68.9,57.5,30.03,ESE,110,1.0,3.0,67,0.00,,,0.00,VWS V14.01,2013-07-02 01:38:00,
2013-07-02 03:40:00,69.0,58.0,30.03,ESE,110,0.0,3.0,68,0.00,,,0.00,VWS V14.01,2013-07-02 01:40:00,
2013-07-02 03:43:00,69.0,58.0,30.03,ESE,110,0.0,3.0,68,0.00,,,0.00,VWS V14.01,2013-07-02 01:43:00,
2013-07-02 03:48:00,68.9,57.9,30.03,ESE,110,0.0,0.0,68,0.00,,,0.00,VWS V14.01,2013-07-02 01:48:00,
2013-07-02 03:50:00,68.9,57.9,30.03,ESE,110,0.0,0.0,68,0.00,,,0.00,VWS V14.01,2013-07-02 01:50:00,
2013-07-02 03:53:00,68.9,57.9,30.03,ESE,110,0.0,0.0,68,0.00,,,0.00,VWS V14.01,2013-07-02 01:53:00,
2013-07-02 03:58:00,68.9,58.3,30.03,ESE,110,0.0,0.0,69,0.00,,,0.00,VWS V14.01,2013-07-02 01:58:00,
2013-07-02 04:00:00,68.9,58.3,30.04,ESE,110,0.0,0.0,69,0.00,,,0.00,VWS V14.01,2013-07-02 02:00:00,
2013-07-02 04:03:00,68.9,58.3,30.04,ESE,110,0.0,0.0,69,0.00,,,0.00,VWS V14.01,2013-07-02 02:03:00,
2013-07-02 04:08:00,68.9,58.3,30.04,ESE,110,0.0,0.0,69,0.00,,,0.00,VWS V14.01,2013-07-02 02:08:00,
2013-07-02 04:10:00,68.9,58.7,30.03,ESE,110,0.0,0.0,70,0.00,,,0.00,VWS V14.01,2013-07-02 02:10:00,
2013-07-02 04:13:00,68.9,58.7,30.03,ESE,110,0.0,0.0,70,0.00,,,0.00,VWS V14.01,2013-07-02 02:13:00,
2013-07-02 04:18:00,69.1,59.3,30.03,ESE,110,0.0,0.0,71,0.00,,,0.00,VWS V14.01,2013-07-02 02:18:00,
2013-07-02 04:20:00,68.8,59.4,30.04,ESE,110,0.0,0.0,72,0.00,,,0.00,VWS V14.01,2013-07-02 02:20:00,
2013-07-02 04:23:00,68.8,59.0,30.04,ESE,110,0.0,0.0,71,0.00,,,0.00,VWS V14.01,2013-07-02 02:23:00,
2013-07-02 04:28:00,68.7,59.3,30.04,ESE,110,0.0,0.0,72,0.00,,,0.00,VWS V14.01,2013-07-02 02:28:00,
2013-07-02 04:30:00,68.7,59.7,30.04,ESE,110,0.0,0.0,73,0.00,,,0.00,VWS V14.01,2013-07-02 02:30:00,
2013-07-02 04:33:00,68.6,59.6,30.04,ESE,110,0.0,0.0,73,0.00,,,0.00,VWS V14.01,2013-07-02 02:33:00,
2013-07-02 04:38:00,68.8,59.8,30.04,ESE,110,0.0,0.0,73,0.00,,,0.00,VWS V14.01,2013-07-02 02:38:00,
2013-07-02 04:40:00,68.6,59.6,30.04,ESE,110,0.0,0.0,73,0.00,,,0.00,VWS V14.01,2013-07-02 02:40:00,
2013-07-02 04:43:00,68.7,59.7,30.04,ESE,110,0.0,0.0,73,0.00,,,0.00,VWS V14.01,2013-07-02 02:43:00,
2013-07-02 04:48:00,68.6,59.6,30.04,ESE,110,0.0,0.0,73,0.00,,,0.00,VWS V14.01,2013-07-02 02:48:00,
2013-07-02 04:50:00,68.7,60.1,30.04,ESE,110,0.0,0.0,74,0.00,,,0.00,VWS V14.01,2013-07-02 02:50:00,
2013-07-02 04:53:00,68.6,60.0,30.04,ESE,110,0.0,0.0,74,0.00,,,0.00,VWS V14.01,2013-07-02 02:53:00,
2013-07-02 04:58:00,68.8,60.6,30.04,ESE,110,0.0,0.0,75,0.00,,,0.00,VWS V14.01,2013-07-02 02:58:00,
2013-07-02 05:00:00,68.8,60.6,30.04,ESE,110,0.0,0.0,75,0.00,,,0.00,VWS V14.01,2013-07-02 03:00:00,
2013-07-02 05:03:00,68.8,60.6,30.04,ESE,110,0.0,0.0,75,0.00,,,0.00,VWS V14.01,2013-07-02 03:03:00,
2013-07-02 05:08:00,68.7,60.5,30.04,ESE,110,0.0,0.0,75,0.00,,,0.00,VWS V14.01,2013-07-02 03:08:00,
2013-07-02 05:10:00,68.7,60.8,30.04,ESE,110,0.0,0.0,76,0.00,,,0.00,VWS V14.01,2013-07-02 03:10:00,
2013-07-02 05:13:00,68.7,60.8,30.04,ESE,110,0.0,0.0,76,0.00,,,0.00,VWS V14.01,2013-07-02 03:13:00,
2013-07-02 05:18:00,68.8,60.9,30.04,ESE,110,0.0,0.0,76,0.00,,,0.00,VWS V14.01,2013-07-02 03:18:00,
2013-07-02 05:20:00,68.6,60.7,30.04,ESE,110,0.0,0.0,76,0.00,,,0.00,VWS V14.01,2013-07-02 03:20:00,
2013-07-02 05:23:00,68.6,60.7,30.04,ESE,110,0.0,0.0,76,0.00,,,0.00,VWS V14.01,2013-07-02 03:23:00,
2013-07-02 05:28:00,68.7,60.8,30.04,ESE,110,0.0,0.0,76,0.00,,,0.00,VWS V14.01,2013-07-02 03:28:00,
2013-07-02 05:30:00,68.7,60.8,30.04,ESE,110,0.0,0.0,76,0.00,,,0.00,VWS V14.01,2013-07-02 03:30:00,
2013-07-02 05:33:00,68.7,60.8,30.04,ESE,110,0.0,0.0,76,0.00,,,0.00,VWS V14.01,2013-07-02 03:33:00,
2013-07-02 05:38:00,68.5,60.6,30.04,ESE,110,0.0,0.0,76,0.00,,,0.00,VWS V14.01,2013-07-02 03:38:00,
2013-07-02 05:40:00,68.5,60.6,30.04,ESE,110,0.0,0.0,76,0.00,,,0.00,VWS V14.01,2013-07-02 03:40:00,
2013-07-02 05:43:00,68.5,60.6,30.04,ESE,110,0.0,0.0,76,0.00,,,0.00,VWS V14.01,2013-07-02 03:43:00,
2013-07-02 05:48:00,68.6,61.1,30.05,ESE,110,0.0,0.0,77,0.00,,,0.00,VWS V14.01,2013-07-02 03:48:00,
2013-07-02 05:50:00,68.7,61.2,30.05,ESE,110,0.0,0.0,77,0.00,,,0.00,VWS V14.01,2013-07-02 03:50:00,
2013-07-02 05:53:00,68.7,61.2,30.05,ESE,110,0.0,0.0,77,0.00,,,0.00,VWS V14.01,2013-07-02 03:53:00,
2013-07-02 05:58:00,68.7,61.6,30.05,ESE,110,0.0,0.0,78,0.00,,,0.00,VWS V14.01,2013-07-02 03:58:00,
2013-07-02 06:00:00,68.6,61.8,30.05,ESE,110,0.0,0.0,79,0.00,,,0.00,VWS V14.01,2013-07-02 04:00:00,
2013-07-02 06:01:00,68.7,61.6,30.05,ESE,110,0.0,0.0,78,0.00,,,0.00,VWS V14.01,2013-07-02 04:01:00,
2013-07-02 06:02:00,68.7,61.6,30.05,ESE,110,0.0,0.0,78,0.00,,,0.00,VWS V14.01,2013-07-02 04:02:00,
2013-07-02 06:07:00,68.6,61.8,30.05,ESE,110,0.0,0.0,79,0.00,,,0.00,VWS V14.01,2013-07-02 04:07:00,
2013-07-02 06:10:00,68.4,61.6,30.05,ESE,110,0.0,0.0,79,0.00,,,0.00,VWS V14.01,2013-07-02 04:10:00,
2013-07-02 06:12:00,68.4,61.6,30.05,ESE,110,0.0,0.0,79,0.00,,,0.00,VWS V14.01,2013-07-02 04:12:00,
2013-07-02 06:17:00,68.4,62.0,30.05,ESE,110,0.0,0.0,80,0.00,,,0.00,VWS V14.01,2013-07-02 04:17:00,
2013-07-02 06:20:00,68.7,62.3,30.05,ESE,110,0.0,0.0,80,0.00,,,0.00,VWS V14.01,2013-07-02 04:20:00,
2013-07-02 06:22:00,68.6,62.2,30.05,ESE,110,0.0,0.0,80,0.00,,,0.00,VWS V14.01,2013-07-02 04:22:00,
2013-07-02 06:27:00,68.9,62.5,30.05,ESE,110,0.0,0.0,80,0.00,,,0.00,VWS V14.01,2013-07-02 04:27:00,
2013-07-02 06:30:00,69.3,62.5,30.05,ESE,110,0.0,0.0,79,0.00,,,0.00,VWS V14.01,2013-07-02 04:30:00,
2013-07-02 06:32:00,69.2,62.8,30.05,ESE,110,0.0,0.0,80,0.00,,,0.00,VWS V14.01,2013-07-02 04:32:00,
2013-07-02 06:37:00,69.3,62.5,30.05,ESE,110,0.0,0.0,79,0.00,,,0.00,VWS V14.01,2013-07-02 04:37:00,
2013-07-02 06:40:00,69.8,63.0,30.05,ESE,110,0.0,0.0,79,0.00,,,0.00,VWS V14.01,2013-07-02 04:40:00,
2013-07-02 06:42:00,69.6,62.8,30.05,ESE,110,0.0,0.0,79,0.00,,,0.00,VWS V14.01,2013-07-02 04:42:00,
2013-07-02 06:47:00,69.9,63.1,30.05,ESE,110,0.0,0.0,79,0.00,,,0.00,VWS V14.01,2013-07-02 04:47:00,
2013-07-02 06:50:00,70.2,63.4,30.05,ESE,110,0.0,0.0,79,0.00,,,0.00,VWS V14.01,2013-07-02 04:50:00,
2013-07-02 06:52:00,70.1,63.3,30.05,ESE,110,0.0,0.0,79,0.00,,,0.00,VWS V14.01,2013-07-02 04:52:00,
2013-07-02 06:57:00,70.3,63.5,30.05,ESE,110,0.0,0.0,79,0.00,,,0.00,VWS V14.01,2013-07-02 04:57:00,
2013-07-02 07:00:00,70.5,63.3,30.05,ESE,110,0.0,0.0,78,0.00,,,0.00,VWS V14.01,2013-07-02 05:00:00,
2013-07-02 07:02:00,70.5,63.3,30.05,ESE,110,0.0,0.0,78,0.00,,,0.00,VWS V14.01,2013-07-02 05:02:00,
2013-07-02 07:07:00,70.7,63.5,30.05,ESE,110,0.0,0.0,78,0.00,,,0.00,VWS V14.01,2013-07-02 05:07:00,
2013-07-02 07:10:00,70.9,63.3,30.05,ESE,110,0.0,0.0,77,0.00,,,0.00,VWS V14.01,2013-07-02 05:10:00,
2013-07-02 07:12:00,70.9,63.7,30.05,ESE,110,0.0,0.0,78,0.00,,,0.00,VWS V14.01,2013-07-02 05:12:00,
2013-07-02 07:17:00,71.2,63.6,30.05,ESE,110,0.0,0.0,77,0.00,,,0.00,VWS V14.01,2013-07-02 05:17:00,
2013-07-02 07:20:00,71.9,64.3,30.05,ESE,110,0.0,0.0,77,0.00,,,0.00,VWS V14.01,2013-07-02 05:20:00,
2013-07-02 07:22:00,71.7,64.1,30.05,ESE,110,0.0,0.0,77,0.00,,,0.00,VWS V14.01,2013-07-02 05:22:00,
2013-07-02 07:27:00,72.3,64.3,30.06,ESE,110,0.0,0.0,76,0.00,,,0.00,VWS V14.01,2013-07-02 05:27:00,
2013-07-02 07:30:00,72.7,64.3,30.06,ESE,110,0.0,0.0,75,0.00,,,0.00,VWS V14.01,2013-07-02 05:30:00,
2013-07-02 07:32:00,72.7,64.3,30.06,ESE,110,0.0,0.0,75,0.00,,,0.00,VWS V14.01,2013-07-02 05:32:00,
2013-07-02 07:37:00,72.7,64.7,30.06,ESE,110,0.0,0.0,76,0.00,,,0.00,VWS V14.01,2013-07-02 05:37:00,
2013-07-02 07:40:00,72.9,64.9,30.06,ESE,110,1.0,3.0,76,0.00,,,0.00,VWS V14.01,2013-07-02 05:40:00,
2013-07-02 07:42:00,72.9,64.9,30.06,ESE,110,0.0,3.0,76,0.00,,,0.00,VWS V14.01,2013-07-02 05:42:00,
2013-07-02 07:47:00,72.9,64.9,30.06,ESE,110,0.0,1.0,76,0.00,,,0.00,VWS V14.01,2013-07-02 05:47:00,
2013-07-02 07:50:00,73.0,65.0,30.06,ESE,119,2.0,4.0,76,0.00,,,0.00,VWS V14.01,2013-07-02 05:50:00,
2013-07-02 07:52:00,72.9,64.9,30.06,ESE,119,2.0,4.0,76,0.00,,,0.00,VWS V14.01,2013-07-02 05:52:00,
2013-07-02 07:57:00,73.0,65.4,30.06,ESE,119,2.0,3.0,77,0.00,,,0.00,VWS V14.01,2013-07-02 05:57:00,
2013-07-02 08:00:00,73.1,65.5,30.06,ESE,123,1.0,4.0,77,0.00,,,0.00,VWS V14.01,2013-07-02 06:00:00,
2013-07-02 08:02:00,73.0,65.4,30.06,ESE,123,4.0,4.0,77,0.00,,,0.00,VWS V14.01,2013-07-02 06:02:00,
2013-07-02 08:07:00,73.3,65.7,30.06,ESE,123,0.0,1.0,77,0.00,,,0.00,VWS V14.01,2013-07-02 06:07:00,
2013-07-02 08:10:00,73.3,65.7,30.07,SW,219,2.0,4.0,77,0.00,,,0.00,VWS V14.01,2013-07-02 06:10:00,
2013-07-02 08:13:00,73.4,65.8,30.06,ESE,123,0.0,3.0,77,0.00,,,0.00,VWS V14.01,2013-07-02 06:13:00,
2013-07-02 08:18:00,72.8,65.6,30.07,SW,219,0.0,3.0,78,0.00,,,0.00,VWS V14.01,2013-07-02 06:18:00,
2013-07-02 08:20:00,72.6,65.3,30.07,SW,219,1.0,4.0,78,0.00,,,0.00,VWS V14.01,2013-07-02 06:20:00,
2013-07-02 08:23:00,72.7,65.4,30.07,SW,219,0.0,4.0,78,0.00,,,0.00,VWS V14.01,2013-07-02 06:23:00,
2013-07-02 08:28:00,72.5,65.6,30.07,SW,217,3.0,4.0,79,0.00,,,0.00,VWS V14.01,2013-07-02 06:28:00,
2013-07-02 08:30:00,72.4,64.8,30.07,SW,236,2.0,4.0,77,0.00,,,0.00,VWS V14.01,2013-07-02 06:30:00,
2013-07-02 08:33:00,72.6,65.3,30.07,SW,236,3.0,4.0,78,0.00,,,0.00,VWS V14.01,2013-07-02 06:33:00,
2013-07-02 08:38:00,72.5,64.9,30.07,SW,236,0.0,2.0,77,0.00,,,0.00,VWS V14.01,2013-07-02 06:38:00,
2013-07-02 08:40:00,72.9,64.1,30.07,SW,232,2.0,4.0,74,0.00,,,0.00,VWS V14.01,2013-07-02 06:40:00,
2013-07-02 08:43:00,72.9,64.5,30.07,SW,232,4.0,4.0,75,0.00,,,0.00,VWS V14.01,2013-07-02 06:43:00,
2013-07-02 08:48:00,72.8,63.3,30.07,SW,232,3.0,4.0,72,0.00,,,0.00,VWS V14.01,2013-07-02 06:48:00,
2013-07-02 08:50:00,73.5,63.5,30.07,SW,221,0.0,4.0,71,0.00,,,0.00,VWS V14.01,2013-07-02 06:50:00,
2013-07-02 08:53:00,73.4,63.4,30.07,SW,222,1.0,4.0,71,0.00,,,0.00,VWS V14.01,2013-07-02 06:53:00,
2013-07-02 08:58:00,74.0,63.2,30.07,South,188,3.0,6.0,69,0.00,,,0.00,VWS V14.01,2013-07-02 06:58:00,
2013-07-02 09:00:00,73.8,63.0,30.07,SSW,202,4.0,6.0,69,0.00,,,0.00,VWS V14.01,2013-07-02 07:00:00,
2013-07-02 09:03:00,73.8,63.0,30.07,SSW,202,6.0,6.0,69,0.00,,,0.00,VWS V14.01,2013-07-02 07:03:00,
2013-07-02 09:09:00,74.0,64.4,30.07,SSW,213,5.0,5.0,72,0.00,,,0.00,VWS V14.01,2013-07-02 07:09:00,
2013-07-02 09:10:00,73.4,64.6,30.07,SSW,212,2.0,6.0,74,0.00,,,0.00,VWS V14.01,2013-07-02 07:10:00,
2013-07-02 09:14:00,73.4,64.6,30.07,SSW,212,2.0,6.0,74,0.00,,,0.00,VWS V14.01,2013-07-02 07:14:00,
2013-07-02 09:19:00,73.5,64.7,30.07,SSW,210,5.0,6.0,74,0.00,,,0.00,VWS V14.01,2013-07-02 07:19:00,
2013-07-02 09:20:00,73.1,64.7,30.07,SW,215,3.0,6.0,75,0.00,,,0.00,VWS V14.01,2013-07-02 07:20:00,
2013-07-02 09:24:00,73.1,64.7,30.07,SW,215,2.0,6.0,75,0.00,,,0.00,VWS V14.01,2013-07-02 07:24:00,
2013-07-02 09:29:00,73.1,65.1,30.07,SW,232,3.0,6.0,76,0.00,,,0.00,VWS V14.01,2013-07-02 07:29:00,
2013-07-02 09:30:00,72.9,65.3,30.07,SSW,205,4.0,7.0,77,0.00,,,0.00,VWS V14.01,2013-07-02 07:30:00,
2013-07-02 09:34:00,72.9,65.3,30.07,SSW,205,4.0,7.0,77,0.00,,,0.00,VWS V14.01,2013-07-02 07:34:00,
2013-07-02 09:39:00,73.5,65.9,30.07,South,190,2.0,5.0,77,0.00,,,0.00,VWS V14.01,2013-07-02 07:39:00,
2013-07-02 09:40:00,73.1,64.3,30.07,SSW,205,3.0,5.0,74,0.00,,,0.00,VWS V14.01,2013-07-02 07:40:00,
2013-07-02 09:44:00,73.1,64.3,30.07,SSW,205,3.0,5.0,74,0.00,,,0.00,VWS V14.01,2013-07-02 07:44:00,
2013-07-02 09:49:00,73.2,63.6,30.07,SSW,208,2.0,5.0,72,0.00,,,0.00,VWS V14.01,2013-07-02 07:49:00,
2013-07-02 09:50:00,73.8,64.2,30.06,SW,215,1.0,5.0,72,0.00,,,0.00,VWS V14.01,2013-07-02 07:50:00,
2013-07-02 09:54:00,73.7,64.1,30.06,SW,215,1.0,5.0,72,0.00,,,0.00,VWS V14.01,2013-07-02 07:54:00,
2013-07-02 09:59:00,74.4,63.2,30.06,SW,214,3.0,4.0,68,0.00,,,0.00,VWS V14.01,2013-07-02 07:59:00,
2013-07-02 10:00:00,74.0,62.4,30.06,SW,227,2.0,7.0,67,0.00,,,0.00,VWS V14.01,2013-07-02 08:00:00,
2013-07-02 10:04:00,74.0,62.4,30.07,SW,227,4.0,7.0,67,0.00,,,0.00,VWS V14.01,2013-07-02 08:04:00,
2013-07-02 10:09:00,74.2,64.2,30.06,SSW,192,5.0,7.0,71,0.00,,,0.00,VWS V14.01,2013-07-02 08:09:00,
2013-07-02 10:10:00,73.9,63.5,30.06,SSW,205,5.0,7.0,70,0.00,,,0.00,VWS V14.01,2013-07-02 08:10:00,
2013-07-02 10:14:00,73.9,63.5,30.06,SSW,205,5.0,7.0,70,0.00,,,0.00,VWS V14.01,2013-07-02 08:14:00,
2013-07-02 10:19:00,73.8,64.6,30.06,SSW,205,4.0,9.0,73,0.00,,,0.00,VWS V14.01,2013-07-02 08:19:00,
2013-07-02 10:20:00,73.7,64.5,30.06,SW,216,9.0,9.0,73,0.00,,,0.00,VWS V14.01,2013-07-02 08:20:00,
2013-07-02 10:24:00,73.7,64.5,30.06,SW,216,9.0,9.0,73,0.00,,,0.00,VWS V14.01,2013-07-02 08:24:00,
2013-07-02 10:29:00,73.6,65.2,30.06,SSW,200,2.0,9.0,75,0.00,,,0.00,VWS V14.01,2013-07-02 08:29:00,
2013-07-02 10:30:00,73.8,64.6,30.06,SW,217,3.0,9.0,73,0.00,,,0.00,VWS V14.01,2013-07-02 08:30:00,
2013-07-02 10:34:00,73.8,64.6,30.06,SW,217,4.0,9.0,73,0.00,,,0.00,VWS V14.01,2013-07-02 08:34:00,
2013-07-02 10:39:00,73.8,65.0,30.06,SW,236,4.0,6.0,74,0.00,,,0.00,VWS V14.01,2013-07-02 08:39:00,
2013-07-02 10:40:00,73.8,65.0,30.06,SW,234,6.0,8.0,74,0.00,,,0.00,VWS V14.01,2013-07-02 08:40:00,
2013-07-02 10:44:00,73.8,65.0,30.06,SW,234,6.0,8.0,74,0.00,,,0.00,VWS V14.01,2013-07-02 08:44:00,
2013-07-02 10:49:00,74.1,65.7,30.06,SW,216,3.0,7.0,75,0.00,,,0.00,VWS V14.01,2013-07-02 08:49:00,
2013-07-02 10:50:00,73.8,65.0,30.06,SW,227,7.0,8.0,74,0.00,,,0.00,VWS V14.01,2013-07-02 08:50:00,
2013-07-02 10:54:00,73.8,65.0,30.06,SW,227,7.0,8.0,74,0.00,,,0.00,VWS V14.01,2013-07-02 08:54:00,
2013-07-02 10:59:00,73.3,64.9,30.06,SW,223,10.0,10.0,75,0.00,,,0.00,VWS V14.01,2013-07-02 08:59:00,
2013-07-02 11:00:00,73.4,65.0,30.07,South,175,6.0,10.0,75,0.00,,,0.00,VWS V14.01,2013-07-02 09:00:00,
2013-07-02 11:04:00,73.4,65.0,30.07,SSW,192,1.0,10.0,75,0.00,,,0.00,VWS V14.01,2013-07-02 09:04:00,
2013-07-02 11:09:00,73.3,64.9,30.07,SW,224,5.0,9.0,75,0.00,,,0.00,VWS V14.01,2013-07-02 09:09:00,
2013-07-02 11:10:00,73.0,65.0,30.07,SSW,200,6.0,9.0,76,0.00,,,0.00,VWS V14.01,2013-07-02 09:10:00,
2013-07-02 11:14:00,73.0,65.0,30.07,SW,214,7.0,7.0,76,0.00,,,0.00,VWS V14.01,2013-07-02 09:14:00,
2013-07-02 11:19:00,73.2,65.2,30.07,SSW,198,7.0,8.0,76,0.00,,,0.00,VWS V14.01,2013-07-02 09:19:00,
2013-07-02 11:20:00,73.1,65.1,30.07,SSW,211,8.0,8.0,76,0.00,,,0.00,VWS V14.01,2013-07-02 09:20:00,
2013-07-02 11:24:00,73.1,65.1,30.07,SW,225,8.0,9.0,76,0.00,,,0.00,VWS V14.01,2013-07-02 09:24:00,
2013-07-02 11:29:00,73.7,66.1,30.07,SSE,157,3.0,9.0,77,0.00,,,0.00,VWS V14.01,2013-07-02 09:29:00,
2013-07-02 11:30:00,73.6,65.2,30.07,SW,227,2.0,9.0,75,0.00,,,0.00,VWS V14.01,2013-07-02 09:30:00,
2013-07-02 11:34:00,73.7,65.3,30.07,SW,227,2.0,3.0,75,0.00,,,0.00,VWS V14.01,2013-07-02 09:34:00,
2013-07-02 11:39:00,73.4,64.2,30.07,SSE,167,6.0,9.0,73,0.00,,,0.00,VWS V14.01,2013-07-02 09:39:00,
2013-07-02 11:40:00,74.1,64.5,30.07,SSE,157,2.0,9.0,72,0.00,,,0.00,VWS V14.01,2013-07-02 09:40:00,
2013-07-02 11:44:00,74.1,64.5,30.07,SSE,157,0.0,2.0,72,0.00,,,0.00,VWS V14.01,2013-07-02 09:44:00,
2013-07-02 11:49:00,74.5,62.4,30.06,SW,227,2.0,7.0,66,0.00,,,0.00,VWS V14.01,2013-07-02 09:49:00,
2013-07-02 11:50:00,74.9,62.3,30.06,SW,229,9.0,9.0,65,0.00,,,0.00,VWS V14.01,2013-07-02 09:50:00,
2013-07-02 11:54:00,74.8,62.3,30.06,SW,215,9.0,9.0,65,0.00,,,0.00,VWS V14.01,2013-07-02 09:54:00,
2013-07-02 11:59:00,74.3,60.5,30.07,SSW,207,7.0,9.0,62,0.00,,,0.00,VWS V14.01,2013-07-02 09:59:00,
2013-07-02 12:00:00,74.9,61.5,30.06,SW,234,8.0,9.0,63,0.00,,,0.00,VWS V14.01,2013-07-02 10:00:00,
2013-07-02 12:04:00,74.9,61.5,30.06,South,188,4.0,10.0,63,0.00,,,0.00,VWS V14.01,2013-07-02 10:04:00,
2013-07-02 12:09:00,75.3,62.7,30.07,SSW,211,4.0,10.0,65,0.00,,,0.00,VWS V14.01,2013-07-02 10:09:00,
2013-07-02 12:10:00,74.7,61.3,30.07,SW,223,6.0,10.0,63,0.00,,,0.00,VWS V14.01,2013-07-02 10:10:00,
2013-07-02 12:14:00,74.7,61.7,30.07,WSW,244,6.0,7.0,64,0.00,,,0.00,VWS V14.01,2013-07-02 10:14:00,
2013-07-02 12:19:00,75.2,61.8,30.06,SSW,197,5.0,7.0,63,0.00,,,0.00,VWS V14.01,2013-07-02 10:19:00,
2013-07-02 12:20:00,74.8,61.4,30.06,SSW,207,5.0,9.0,63,0.00,,,0.00,VWS V14.01,2013-07-02 10:20:00,
2013-07-02 12:24:00,74.8,61.4,30.06,SW,219,5.0,7.0,63,0.00,,,0.00,VWS V14.01,2013-07-02 10:24:00,
2013-07-02 12:29:00,74.9,63.2,30.06,SSW,209,7.0,9.0,67,0.00,,,0.00,VWS V14.01,2013-07-02 10:29:00,
2013-07-02 12:30:00,74.8,63.1,30.06,SSW,196,7.0,9.0,67,0.00,,,0.00,VWS V14.01,2013-07-02 10:30:00,
2013-07-02 12:34:00,74.7,63.0,30.06,South,181,8.0,8.0,67,0.00,,,0.00,VWS V14.01,2013-07-02 10:34:00,
2013-07-02 12:39:00,74.7,63.0,30.06,SSW,196,7.0,11.0,67,0.00,,,0.00,VWS V14.01,2013-07-02 10:39:00,
2013-07-02 12:40:00,74.5,63.7,30.06,SSE,153,8.0,11.0,69,0.00,,,0.00,VWS V14.01,2013-07-02 10:40:00,
2013-07-02 12:44:00,74.7,63.9,30.06,South,173,9.0,9.0,69,0.00,,,0.00,VWS V14.01,2013-07-02 10:44:00,
2013-07-02 12:49:00,74.9,63.6,30.06,SSW,205,3.0,11.0,68,0.00,,,0.00,VWS V14.01,2013-07-02 10:49:00,
2013-07-02 12:50:00,75.2,64.3,30.06,South,184,5.0,11.0,69,0.00,,,0.00,VWS V14.01,2013-07-02 10:50:00,
2013-07-02 12:54:00,75.2,64.3,30.06,SSW,192,7.0,7.0,69,0.00,,,0.00,VWS V14.01,2013-07-02 10:54:00,
2013-07-02 12:59:00,75.2,64.3,30.07,SW,226,3.0,9.0,69,0.00,,,0.00,VWS V14.01,2013-07-02 10:59:00,
2013-07-02 13:00:00,75.8,64.5,30.06,South,171,6.0,9.0,68,0.00,,,0.00,VWS V14.01,2013-07-02 11:00:00,
2013-07-02 13:04:00,75.9,64.6,30.06,South,173,6.0,8.0,68,0.00,,,0.00,VWS V14.01,2013-07-02 11:04:00,
2013-07-02 13:09:00,75.4,64.5,30.06,SSW,206,7.0,8.0,69,0.00,,,0.00,VWS V14.01,2013-07-02 11:09:00,
2013-07-02 13:10:00,75.4,64.5,30.06,SSW,207,4.0,8.0,69,0.00,,,0.00,VWS V14.01,2013-07-02 11:10:00,
2013-07-02 13:14:00,75.4,64.1,30.06,SSW,192,5.0,6.0,68,0.00,,,0.00,VWS V14.01,2013-07-02 11:14:00,
2013-07-02 13:19:00,75.5,64.2,30.06,SW,221,5.0,9.0,68,0.00,,,0.00,VWS V14.01,2013-07-02 11:19:00,
2013-07-02 13:20:00,75.7,64.4,30.05,South,187,7.0,9.0,68,0.00,,,0.00,VWS V14.01,2013-07-02 11:20:00,
2013-07-02 13:24:00,75.7,64.4,30.05,South,179,6.0,7.0,68,0.00,,,0.00,VWS V14.01,2013-07-02 11:24:00,
2013-07-02 13:29:00,75.7,64.4,30.05,SSE,168,0.0,10.0,68,0.00,,,0.00,VWS V14.01,2013-07-02 11:29:00,
2013-07-02 13:30:00,76.1,64.8,30.05,SW,234,8.0,10.0,68,0.00,,,0.00,VWS V14.01,2013-07-02 11:30:00,
2013-07-02 13:35:00,76.0,64.7,30.05,WSW,242,6.0,8.0,68,0.00,,,0.00,VWS V14.01,2013-07-02 11:35:00,
2013-07-02 13:40:00,76.0,65.5,30.05,SSW,205,6.0,8.0,70,0.00,,,0.00,VWS V14.01,2013-07-02 11:40:00,
2013-07-02 13:45:00,76.0,65.1,30.05,SW,227,6.0,7.0,69,0.00,,,0.00,VWS V14.01,2013-07-02 11:45:00,
2013-07-02 13:50:00,75.9,62.4,30.05,SW,227,3.0,11.0,63,0.00,,,0.00,VWS V14.01,2013-07-02 11:50:00,
2013-07-02 13:55:00,76.6,64.4,30.05,SSW,209,5.0,9.0,66,0.00,,,0.00,VWS V14.01,2013-07-02 11:55:00,
2013-07-02 14:00:00,76.1,63.0,30.05,SW,225,12.0,12.0,64,0.00,,,0.00,VWS V14.01,2013-07-02 12:00:00,
2013-07-02 14:05:00,75.5,64.2,30.05,SW,230,12.0,12.0,68,0.00,,,0.00,VWS V14.01,2013-07-02 12:05:00,
2013-07-02 14:10:00,75.1,65.5,30.05,SW,228,11.0,12.0,72,0.00,,,0.00,VWS V14.01,2013-07-02 12:10:00,
2013-07-02 14:15:00,75.2,65.6,30.05,SW,218,12.0,12.0,72,0.00,,,0.00,VWS V14.01,2013-07-02 12:15:00,
2013-07-02 14:20:00,75.5,65.8,30.05,WSW,238,5.0,14.0,72,0.00,,,0.00,VWS V14.01,2013-07-02 12:20:00,
2013-07-02 14:25:00,75.6,66.3,30.04,WSW,243,8.0,8.0,73,0.00,,,0.00,VWS V14.01,2013-07-02 12:25:00,
2013-07-02 14:30:00,75.6,65.9,30.04,WSW,247,9.0,10.0,72,0.00,,,0.00,VWS V14.01,2013-07-02 12:30:00,
2013-07-02 14:35:00,75.1,65.9,30.04,WSW,247,4.0,9.0,73,0.00,,,0.00,VWS V14.01,2013-07-02 12:35:00,
2013-07-02 14:40:00,75.4,66.2,30.04,WSW,241,8.0,10.0,73,0.00,,,0.00,VWS V14.01,2013-07-02 12:40:00,
2013-07-02 14:45:00,75.9,66.6,30.05,SW,222,8.0,12.0,73,0.00,,,0.00,VWS V14.01,2013-07-02 12:45:00,
2013-07-02 14:50:00,75.8,66.1,30.05,West,263,4.0,12.0,72,0.00,,,0.00,VWS V14.01,2013-07-02 12:50:00,
2013-07-02 14:55:00,74.8,65.2,30.05,SW,229,5.0,10.0,72,0.00,,,0.00,VWS V14.01,2013-07-02 12:55:00,
2013-07-02 15:00:00,75.4,65.3,30.05,SSW,210,7.0,10.0,71,0.00,,,0.00,VWS V14.01,2013-07-02 13:00:00,
2013-07-02 15:05:00,75.8,65.7,30.04,SW,221,6.0,10.0,71,0.00,,,0.00,VWS V14.01,2013-07-02 13:05:00,
2013-07-02 15:10:00,76.2,65.7,30.04,WSW,244,7.0,11.0,70,0.00,,,0.00,VWS V14.01,2013-07-02 13:10:00,
2013-07-02 15:15:00,76.1,65.6,30.04,WSW,250,8.0,9.0,70,0.00,,,0.00,VWS V14.01,2013-07-02 13:15:00,
2013-07-02 15:20:00,76.3,64.6,30.04,WSW,242,9.0,11.0,67,0.00,,,0.00,VWS V14.01,2013-07-02 13:20:00,
2013-07-02 15:25:00,76.6,63.1,30.04,SW,216,4.0,9.0,63,0.00,,,0.00,VWS V14.01,2013-07-02 13:25:00,
2013-07-02 15:30:00,77.1,62.6,30.04,WSW,244,7.0,9.0,61,0.00,,,0.00,VWS V14.01,2013-07-02 13:30:00,
2013-07-02 15:35:00,77.5,62.5,30.03,WSW,252,8.0,8.0,60,0.00,,,0.00,VWS V14.01,2013-07-02 13:35:00,
2013-07-02 15:40:00,77.2,61.3,30.03,West,271,10.0,11.0,58,0.00,,,0.00,VWS V14.01,2013-07-02 13:40:00,
2013-07-02 15:45:00,77.8,60.9,30.03,WSW,242,7.0,9.0,56,0.00,,,0.00,VWS V14.01,2013-07-02 13:45:00,
2013-07-02 15:50:00,77.2,61.3,30.03,West,271,8.0,11.0,58,0.00,,,0.00,VWS V14.01,2013-07-02 13:50:00,
2013-07-02 15:55:00,77.3,61.9,30.03,West,263,7.0,10.0,59,0.00,,,0.00,VWS V14.01,2013-07-02 13:55:00,
2013-07-02 16:00:00,77.0,61.6,30.03,WSW,255,6.0,12.0,59,0.00,,,0.00,VWS V14.01,2013-07-02 14:00:00,
2013-07-02 16:05:00,76.8,62.3,30.03,West,259,11.0,11.0,61,0.00,,,0.00,VWS V14.01,2013-07-02 14:05:00,
2013-07-02 16:10:00,77.2,63.2,30.03,West,276,7.0,12.0,62,0.00,,,0.00,VWS V14.01,2013-07-02 14:10:00,
2013-07-02 16:15:00,77.0,63.5,30.03,West,264,8.0,11.0,63,0.00,,,0.00,VWS V14.01,2013-07-02 14:15:00,
2013-07-02 16:20:00,76.9,64.2,30.03,WSW,241,6.0,12.0,65,0.00,,,0.00,VWS V14.01,2013-07-02 14:20:00,
2013-07-02 16:25:00,77.1,64.9,30.03,WSW,239,5.0,9.0,66,0.00,,,0.00,VWS V14.01,2013-07-02 14:25:00,
2013-07-02 16:30:00,76.8,64.6,30.03,West,260,6.0,10.0,66,0.00,,,0.00,VWS V14.01,2013-07-02 14:30:00,
2013-07-02 16:35:00,76.9,65.1,30.03,WSW,244,6.0,10.0,67,0.00,,,0.00,VWS V14.01,2013-07-02 14:35:00,
2013-07-02 16:40:00,77.3,65.5,30.03,WSW,246,6.0,11.0,67,0.00,,,0.00,VWS V14.01,2013-07-02 14:40:00,
2013-07-02 16:45:00,77.3,64.6,30.03,West,265,8.0,8.0,65,0.00,,,0.00,VWS V14.01,2013-07-02 14:45:00,
2013-07-02 16:50:00,77.4,64.3,30.03,WSW,242,6.0,11.0,64,0.00,,,0.00,VWS V14.01,2013-07-02 14:50:00,
2013-07-02 16:55:00,77.3,63.7,30.02,West,269,8.0,11.0,63,0.00,,,0.00,VWS V14.01,2013-07-02 14:55:00,
2013-07-02 17:00:00,77.1,64.4,30.03,WSW,252,7.0,12.0,65,0.00,,,0.00,VWS V14.01,2013-07-02 15:00:00,
2013-07-02 17:05:00,77.0,64.8,30.03,WSW,250,9.0,11.0,66,0.00,,,0.00,VWS V14.01,2013-07-02 15:05:00,
2013-07-02 17:10:00,77.3,65.1,30.02,WSW,255,6.0,11.0,66,0.00,,,0.00,VWS V14.01,2013-07-02 15:10:00,
2013-07-02 17:15:00,77.0,64.3,30.02,West,274,5.0,10.0,65,0.00,,,0.00,VWS V14.01,2013-07-02 15:15:00,
2013-07-02 17:20:00,77.4,64.3,30.02,WNW,295,4.0,11.0,64,0.00,,,0.00,VWS V14.01,2013-07-02 15:20:00,
2013-07-02 17:21:00,77.3,64.2,30.02,West,270,7.0,10.0,64,0.00,,,0.00,VWS V14.01,2013-07-02 15:21:00,
2013-07-02 17:25:00,77.5,63.9,30.02,West,265,3.0,4.0,63,0.00,,,0.00,VWS V14.01,2013-07-02 15:25:00,
2013-07-02 17:30:00,77.8,62.8,30.02,NW,313,2.0,8.0,60,0.00,,,0.00,VWS V14.01,2013-07-02 15:30:00,
2013-07-02 17:35:00,78.6,63.6,30.02,West,276,4.0,7.0,60,0.00,,,0.00,VWS V14.01,2013-07-02 15:35:00,
2013-07-02 17:40:00,78.2,61.7,30.01,WSW,244,4.0,9.0,57,0.00,,,0.00,VWS V14.01,2013-07-02 15:40:00,
2013-07-02 17:45:00,78.3,61.8,30.01,WNW,286,9.0,9.0,57,0.00,,,0.00,VWS V14.01,2013-07-02 15:45:00,
2013-07-02 17:50:00,78.1,61.6,30.02,WNW,291,6.0,11.0,57,0.00,,,0.00,VWS V14.01,2013-07-02 15:50:00,
2013-07-02 17:55:00,78.1,61.6,30.01,WNW,298,6.0,8.0,57,0.00,,,0.00,VWS V14.01,2013-07-02 15:55:00,
2013-07-02 18:00:00,77.6,59.1,30.01,WNW,292,8.0,11.0,53,0.00,,,0.00,VWS V14.01,2013-07-02 16:00:00,
2013-07-02 18:01:00,77.7,59.2,30.01,West,259,3.0,11.0,53,0.00,,,0.00,VWS V14.01,2013-07-02 16:01:00,
2013-07-02 18:06:00,77.4,59.5,30.01,WNW,294,10.0,11.0,54,0.00,,,0.00,VWS V14.01,2013-07-02 16:06:00,
2013-07-02 18:10:00,78.4,61.9,30.01,WNW,296,3.0,11.0,57,0.00,,,0.00,VWS V14.01,2013-07-02 16:10:00,
2013-07-02 18:11:00,77.8,61.9,30.01,NW,315,2.0,11.0,58,0.00,,,0.00,VWS V14.01,2013-07-02 16:11:00,
2013-07-02 18:16:00,78.4,62.4,30.01,WNW,296,4.0,7.0,58,0.00,,,0.00,VWS V14.01,2013-07-02 16:16:00,
2013-07-02 18:20:00,78.1,61.1,30.01,WNW,298,3.0,9.0,56,0.00,,,0.00,VWS V14.01,2013-07-02 16:20:00,
2013-07-02 18:21:00,78.1,61.1,30.01,WNW,289,7.0,9.0,56,0.00,,,0.00,VWS V14.01,2013-07-02 16:21:00,
2013-07-02 18:26:00,78.4,61.4,30.01,WNW,303,3.0,6.0,56,0.00,,,0.00,VWS V14.01,2013-07-02 16:26:00,
2013-07-02 18:30:00,79.0,61.5,30.01,WNW,300,4.0,6.0,55,0.00,,,0.00,VWS V14.01,2013-07-02 16:30:00,
2013-07-02 18:31:00,79.0,61.5,30.01,WNW,292,3.0,6.0,55,0.00,,,0.00,VWS V14.01,2013-07-02 16:31:00,
2013-07-02 18:36:00,79.0,62.0,30.01,WNW,298,6.0,6.0,56,0.00,,,0.00,VWS V14.01,2013-07-02 16:36:00,
2013-07-02 18:40:00,78.8,62.8,30.01,West,271,7.0,8.0,58,0.00,,,0.00,VWS V14.01,2013-07-02 16:40:00,
2013-07-02 18:41:00,79.0,63.0,30.01,WSW,253,4.0,8.0,58,0.00,,,0.00,VWS V14.01,2013-07-02 16:41:00,
2013-07-02 18:46:00,78.7,63.2,30.01,West,276,7.0,9.0,59,0.00,,,0.00,VWS V14.01,2013-07-02 16:46:00,
2013-07-02 18:50:00,78.0,63.9,30.01,WNW,288,5.0,9.0,62,0.00,,,0.00,VWS V14.01,2013-07-02 16:50:00,
2013-07-02 18:51:00,78.2,63.7,30.01,West,275,1.0,9.0,61,0.00,,,0.00,VWS V14.01,2013-07-02 16:51:00,
2013-07-02 18:56:00,77.8,63.8,30.01,WNW,294,7.0,7.0,62,0.00,,,0.00,VWS V14.01,2013-07-02 16:56:00,
2013-07-02 19:00:00,77.4,64.3,30.01,West,280,3.0,9.0,64,0.00,,,0.00,VWS V14.01,2013-07-02 17:00:00,
2013-07-02 19:01:00,77.3,64.2,30.01,West,279,2.0,9.0,64,0.00,,,0.00,VWS V14.01,2013-07-02 17:01:00,
2013-07-02 19:06:00,77.5,63.9,30.01,West,279,2.0,6.0,63,0.00,,,0.00,VWS V14.01,2013-07-02 17:06:00,
2013-07-02 19:10:00,77.9,63.4,30.01,WNW,287,1.0,6.0,61,0.00,,,0.00,VWS V14.01,2013-07-02 17:10:00,
2013-07-02 19:11:00,78.0,63.5,30.01,WNW,287,0.0,6.0,61,0.00,,,0.00,VWS V14.01,2013-07-02 17:11:00,
2013-07-02 19:16:00,77.8,62.3,30.01,WNW,287,3.0,5.0,59,0.00,,,0.00,VWS V14.01,2013-07-02 17:16:00,
2013-07-02 19:20:00,77.6,62.6,30.01,WNW,293,4.0,6.0,60,0.00,,,0.00,VWS V14.01,2013-07-02 17:20:00,
2013-07-02 19:21:00,77.5,62.1,30.02,WNW,293,3.0,6.0,59,0.00,,,0.00,VWS V14.01,2013-07-02 17:21:00,
2013-07-02 19:26:00,77.4,62.9,30.01,WNW,302,3.0,4.0,61,0.00,,,0.00,VWS V14.01,2013-07-02 17:26:00,
2013-07-02 19:30:00,77.3,61.4,30.01,NW,313,2.0,4.0,58,0.00,,,0.00,VWS V14.01,2013-07-02 17:30:00,
2013-07-02 19:31:00,77.4,62.4,30.01,NW,306,1.0,4.0,60,0.00,,,0.00,VWS V14.01,2013-07-02 17:31:00,
2013-07-02 19:36:00,77.2,61.3,30.01,NW,313,2.0,4.0,58,0.00,,,0.00,VWS V14.01,2013-07-02 17:36:00,
2013-07-02 19:40:00,76.9,59.0,30.02,NW,320,2.0,5.0,54,0.00,,,0.00,VWS V14.01,2013-07-02 17:40:00,
2013-07-02 19:41:00,76.9,59.5,30.01,NW,320,2.0,5.0,55,0.00,,,0.00,VWS V14.01,2013-07-02 17:41:00,
2013-07-02 19:46:00,76.8,58.9,30.01,NW,320,2.0,4.0,54,0.00,,,0.00,VWS V14.01,2013-07-02 17:46:00,
2013-07-02 19:50:00,76.5,59.7,30.01,NW,320,0.0,4.0,56,0.00,,,0.00,VWS V14.01,2013-07-02 17:50:00,
2013-07-02 19:51:00,76.7,59.3,30.01,NW,320,2.0,4.0,55,0.00,,,0.00,VWS V14.01,2013-07-02 17:51:00,
2013-07-02 19:56:00,76.4,60.1,30.02,NW,320,2.0,4.0,57,0.00,,,0.00,VWS V14.01,2013-07-02 17:56:00,
2013-07-02 20:00:00,76.0,59.7,30.02,NW,320,1.0,4.0,57,0.00,,,0.00,VWS V14.01,2013-07-02 18:00:00,
2013-07-02 20:01:00,76.1,59.8,30.02,NW,320,2.0,4.0,57,0.00,,,0.00,VWS V14.01,2013-07-02 18:01:00,
2013-07-02 20:06:00,76.0,60.2,30.02,NW,320,1.0,3.0,58,0.00,,,0.00,VWS V14.01,2013-07-02 18:06:00,
2013-07-02 20:10:00,75.5,60.7,30.02,NW,320,0.0,3.0,60,0.00,,,0.00,VWS V14.01,2013-07-02 18:10:00,
2013-07-02 20:11:00,75.7,60.8,30.02,NW,320,2.0,3.0,60,0.00,,,0.00,VWS V14.01,2013-07-02 18:11:00,
2013-07-02 20:16:00,75.5,61.1,30.02,NW,320,0.0,0.0,61,0.00,,,0.00,VWS V14.01,2013-07-02 18:16:00,
2013-07-02 20:20:00,75.0,59.7,30.02,NW,320,1.0,2.0,59,0.00,,,0.00,VWS V14.01,2013-07-02 18:20:00,
2013-07-02 20:21:00,75.1,60.3,30.02,NW,320,1.0,2.0,60,0.00,,,0.00,VWS V14.01,2013-07-02 18:21:00,
2013-07-02 20:26:00,74.7,59.0,30.02,NW,320,2.0,4.0,58,0.00,,,0.00,VWS V14.01,2013-07-02 18:26:00,
2013-07-02 20:30:00,74.5,58.8,30.02,NNW,331,3.0,5.0,58,0.00,,,0.00,VWS V14.01,2013-07-02 18:30:00,
2013-07-02 20:31:00,74.7,58.5,30.02,NNW,331,3.0,5.0,57,0.00,,,0.00,VWS V14.01,2013-07-02 18:31:00,
2013-07-02 20:36:00,74.3,58.6,30.02,NNW,331,1.0,4.0,58,0.00,,,0.00,VWS V14.01,2013-07-02 18:36:00,
2013-07-02 20:40:00,73.9,57.7,30.02,NNW,333,0.0,4.0,57,0.00,,,0.00,VWS V14.01,2013-07-02 18:40:00,
2013-07-02 20:41:00,73.9,58.2,30.02,NNW,333,4.0,4.0,58,0.00,,,0.00,VWS V14.01,2013-07-02 18:41:00,
2013-07-02 20:46:00,73.9,58.2,30.02,NNW,344,4.0,4.0,58,0.00,,,0.00,VWS V14.01,2013-07-02 18:46:00,
2013-07-02 20:50:00,73.4,58.7,30.02,North,360,5.0,7.0,60,0.00,,,0.00,VWS V14.01,2013-07-02 18:50:00,
2013-07-02 20:51:00,73.6,58.9,30.02,NNE,12,5.0,6.0,60,0.00,,,0.00,VWS V14.01,2013-07-02 18:51:00,
2013-07-02 20:57:00,73.3,59.0,30.02,North,5,4.0,6.0,61,0.00,,,0.00,VWS V14.01,2013-07-02 18:57:00,
2013-07-02 21:00:00,72.9,59.6,30.02,North,5,3.0,6.0,63,0.00,,,0.00,VWS V14.01,2013-07-02 19:00:00,
2013-07-02 21:02:00,73.0,59.2,30.02,North,5,3.0,6.0,62,0.00,,,0.00,VWS V14.01,2013-07-02 19:02:00,
2013-07-02 21:07:00,72.8,59.5,30.02,North,5,4.0,5.0,63,0.00,,,0.00,VWS V14.01,2013-07-02 19:07:00,
2013-07-02 21:10:00,72.6,59.7,30.02,North,5,2.0,5.0,64,0.00,,,0.00,VWS V14.01,2013-07-02 19:10:00,
2013-07-02 21:12:00,72.7,59.8,30.02,North,5,4.0,5.0,64,0.00,,,0.00,VWS V14.01,2013-07-02 19:12:00,
2013-07-02 21:17:00,72.5,60.1,30.02,North,9,1.0,3.0,65,0.00,,,0.00,VWS V14.01,2013-07-02 19:17:00,
2013-07-02 21:20:00,72.3,60.7,30.02,North,9,1.0,3.0,67,0.00,,,0.00,VWS V14.01,2013-07-02 19:20:00,
2013-07-02 21:22:00,72.4,60.8,30.02,North,9,0.0,3.0,67,0.00,,,0.00,VWS V14.01,2013-07-02 19:22:00,
2013-07-02 21:27:00,72.3,61.6,30.03,North,11,2.0,4.0,69,0.00,,,0.00,VWS V14.01,2013-07-02 19:27:00,
2013-07-02 21:30:00,71.5,61.2,30.03,NNE,32,3.0,6.0,70,0.00,,,0.00,VWS V14.01,2013-07-02 19:30:00,
2013-07-02 21:32:00,71.7,61.4,30.03,NNE,31,3.0,6.0,70,0.00,,,0.00,VWS V14.01,2013-07-02 19:32:00,
2013-07-02 21:37:00,71.2,61.3,30.03,NNE,32,0.0,4.0,71,0.00,,,0.00,VWS V14.01,2013-07-02 19:37:00,
2013-07-02 21:40:00,71.0,61.1,30.03,NNE,32,0.0,4.0,71,0.00,,,0.00,VWS V14.01,2013-07-02 19:40:00,
2013-07-02 21:42:00,71.0,61.1,30.03,NNE,32,0.0,4.0,71,0.00,,,0.00,VWS V14.01,2013-07-02 19:42:00,
2013-07-02 21:47:00,70.9,61.0,30.03,NNE,32,0.0,0.0,71,0.00,,,0.00,VWS V14.01,2013-07-02 19:47:00,
2013-07-02 21:50:00,70.9,61.0,30.03,NNE,32,0.0,0.0,71,0.00,,,0.00,VWS V14.01,2013-07-02 19:50:00,
2013-07-02 21:52:00,70.9,61.0,30.03,NNE,32,0.0,0.0,71,0.00,,,0.00,VWS V14.01,2013-07-02 19:52:00,
2013-07-02 21:57:00,70.9,61.0,30.03,NNE,32,0.0,0.0,71,0.00,,,0.00,VWS V14.01,2013-07-02 19:57:00,
2013-07-02 22:00:00,71.0,61.1,30.04,NNE,32,0.0,0.0,71,0.00,,,0.00,VWS V14.01,2013-07-02 20:00:00,
2013-07-02 22:02:00,70.9,61.0,30.03,NNE,32,0.0,0.0,71,0.00,,,0.00,VWS V14.01,2013-07-02 20:02:00,
2013-07-02 22:07:00,71.2,61.3,30.04,NNE,32,0.0,0.0,71,0.00,,,0.00,VWS V14.01,2013-07-02 20:07:00,
2013-07-02 22:10:00,71.2,60.5,30.04,NNE,32,0.0,0.0,69,0.00,,,0.00,VWS V14.01,2013-07-02 20:10:00,
2013-07-02 22:12:00,71.4,61.5,30.04,NNE,32,0.0,0.0,71,0.00,,,0.00,VWS V14.01,2013-07-02 20:12:00,
2013-07-02 22:17:00,70.7,59.6,30.04,NNE,32,0.0,0.0,68,0.00,,,0.00,VWS V14.01,2013-07-02 20:17:00,
2013-07-02 22:20:00,70.5,58.6,30.04,NNE,32,0.0,0.0,66,0.00,,,0.00,VWS V14.01,2013-07-02 20:20:00,
2013-07-02 22:22:00,70.5,58.6,30.03,NNE,32,0.0,0.0,66,0.00,,,0.00,VWS V14.01,2013-07-02 20:22:00,
2013-07-02 22:27:00,70.5,59.0,30.04,NNE,32,0.0,0.0,67,0.00,,,0.00,VWS V14.01,2013-07-02 20:27:00,
2013-07-02 22:30:00,70.1,58.2,30.04,NNE,32,0.0,0.0,66,0.00,,,0.00,VWS V14.01,2013-07-02 20:30:00,
2013-07-02 22:32:00,70.2,58.7,30.04,NNE,32,0.0,0.0,67,0.00,,,0.00,VWS V14.01,2013-07-02 20:32:00,
2013-07-02 22:37:00,70.0,57.7,30.04,NNE,32,4.0,4.0,65,0.00,,,0.00,VWS V14.01,2013-07-02 20:37:00,
2013-07-02 22:40:00,70.2,58.3,30.04,NNE,32,2.0,5.0,66,0.00,,,0.00,VWS V14.01,2013-07-02 20:40:00,
2013-07-02 22:42:00,70.3,58.4,30.04,NNE,32,3.0,5.0,66,0.00,,,0.00,VWS V14.01,2013-07-02 20:42:00,
2013-07-02 22:47:00,70.3,58.8,30.04,NNE,32,2.0,5.0,67,0.00,,,0.00,VWS V14.01,2013-07-02 20:47:00,
2013-07-02 22:50:00,70.2,58.3,30.04,NNE,32,3.0,5.0,66,0.00,,,0.00,VWS V14.01,2013-07-02 20:50:00,
2013-07-02 22:52:00,70.4,58.5,30.04,NNE,32,2.0,5.0,66,0.00,,,0.00,VWS V14.01,2013-07-02 20:52:00,
2013-07-02 22:57:00,70.1,58.7,30.04,NNE,32,3.0,3.0,67,0.00,,,0.00,VWS V14.01,2013-07-02 20:57:00,
2013-07-02 23:00:00,70.2,59.6,30.04,NNE,32,2.0,4.0,69,0.00,,,0.00,VWS V14.01,2013-07-02 21:00:00,
2013-07-02 23:02:00,70.1,59.1,30.04,NNE,32,2.0,4.0,68,0.00,,,0.00,VWS V14.01,2013-07-02 21:02:00,
2013-07-02 23:07:00,70.1,59.1,30.04,NNE,32,1.0,3.0,68,0.00,,,0.00,VWS V14.01,2013-07-02 21:07:00,
2013-07-02 23:10:00,70.0,59.4,30.03,NNE,32,2.0,3.0,69,0.00,,,0.00,VWS V14.01,2013-07-02 21:10:00,
2013-07-02 23:13:00,70.0,59.4,30.03,NNE,32,2.0,3.0,69,0.00,,,0.00,VWS V14.01,2013-07-02 21:13:00,
2013-07-02 23:18:00,69.9,59.3,30.03,NNE,32,1.0,2.0,69,0.00,,,0.00,VWS V14.01,2013-07-02 21:18:00,
2013-07-02 23:20:00,69.7,58.7,30.03,NNE,32,0.0,2.0,68,0.00,,,0.00,VWS V14.01,2013-07-02 21:20:00,
2013-07-02 23:23:00,69.8,58.8,30.03,NNE,32,0.0,2.0,68,0.00,,,0.00,VWS V14.01,2013-07-02 21:23:00,
2013-07-02 23:28:00,70.0,58.5,30.03,NNE,32,0.0,0.0,67,0.00,,,0.00,VWS V14.01,2013-07-02 21:28:00,
2013-07-02 23:30:00,70.3,57.6,30.03,NNE,32,0.0,0.0,64,0.00,,,0.00,VWS V14.01,2013-07-02 21:30:00,
2013-07-02 23:33:00,70.2,57.5,30.03,NNE,32,0.0,0.0,64,0.00,,,0.00,VWS V14.01,2013-07-02 21:33:00,
2013-07-02 23:38:00,70.5,57.3,30.03,NNE,32,0.0,0.0,63,0.00,,,0.00,VWS V14.01,2013-07-02 21:38:00,
2013-07-02 23:40:00,70.9,56.8,30.03,NNE,32,0.0,0.0,61,0.00,,,0.00,VWS V14.01,2013-07-02 21:40:00,
2013-07-02 23:43:00,70.8,56.7,30.03,NNE,32,0.0,0.0,61,0.00,,,0.00,VWS V14.01,2013-07-02 21:43:00,
2013-07-02 23:48:00,71.0,56.4,30.03,NNE,32,0.0,0.0,60,0.00,,,0.00,VWS V14.01,2013-07-02 21:48:00,
2013-07-02 23:50:00,71.1,55.6,30.03,NNE,32,0.0,0.0,58,0.00,,,0.00,VWS V14.01,2013-07-02 21:50:00,
2013-07-02 23:53:00,71.1,55.6,30.03,NNE,32,0.0,0.0,58,0.00,,,0.00,VWS V14.01,2013-07-02 21:53:00,
2013-07-02 23:58:00,71.1,55.1,30.03,NNE,32,0.0,0.0,57,0.00,,,0.00,VWS V14.01,2013-07-02 21:58:00,